"Pseudo-MPEC" for P10UYRX

Created 2019 Dec 5 18:07:17 UT using Find_Orb

Click here for an explanation of pseudo-MPECs

 
 Astrometry: 
     P10UYRX  C2019 11 29#?Sa``9Re)B!L)i@LIk3l0J^AstrometryWsdnslKly2S`K_%T'ZF51
     P10UYRX  C2019 11 29[dJ!6s!\,GF0_#)#K#ovoH/Hb4-hCh$RYCyZY_[%It]Sw.VF_%nHF51
     P10UYRX  C2019 11 29(W\5yYX!]0(-[PfuelD_)Q67a\PgQRIb5^aHp`[xVhredacted;4F51
     P10UYRX  C2019 11 29-/cLUaf^9O_AjXjRG)mpycVZb2#Ps2click9gf%mhTn'4iqm4#nqF51
     P10UYRX  C2019 12 01.15691 07 50 48.31 +59 12 26.8    ~C19b 22.8 VVNEOCP033
     P10UYRX  C2019 12 01.16049 07 50 47.91 +59 12 18.5    ~C19b 22.6 VVNEOCP033
     P10UYRX  C2019 12 01.16405 07 50 47.52 +59 12 10.7    ~C19b 21.4 VVNEOCP033
     P10UYRX  C2019 12 01.16779 07 50 47.12 +59 12 02.1    ~C19b 21.7 VVNEOCP033
     P10UYRX  C2019 12 04pp4N+v;bLhN?ho?.t3wN[Xc$P08SXc$wZ8K?hf[nU/3wX,,Rs]ZTF52
     P10UYRX  C2019 12 04;w3Ea%S@i1=#IBvk/W_@LoxXUPR8d`.bsSIy,iB=`E@)AelxhereF52
     P10UYRX  C2019 12 04$drPYpc5o'd/5)C*\for)MX!4#uqDa=v?'nJ:3)\1\k=NwGd'NB(F52
     P10UYRX  C2019 12 04bEW3CrP?81gbL+OU#1f:A1+2oyexplanation`8'#796[1ATIRB1F52
     P10UYRX ^C2019 12 04.60449607 44 14.964+56 49 17.28   ~C4Kb 20.79GVNEOCP568
     P10UYRX ^C2019 12 04.60544407 44 14.827+56 49 14.66   ~C4Kb 20.73GVNEOCP568
     P10UYRX ^C2019 12 04.60639607 44 14.691+56 49 12.00   ~C4Kb 20.79GVNEOCP568
     P10UYRX  C2019 12 05.03337 07 43 21.59 +56 29 24.7    ~C51b 21.8 VVNEOCP033
     P10UYRX  C2019 12 05.03694 07 43 21.10 +56 29 14.9    ~C51b 21.5 VVNEOCP033
     P10UYRX  C2019 12 05.04051 07 43 20.59 +56 29 05.1    ~C51b 21.8 VVNEOCP033
     P10UYRX  C2019 12 05.04409 07 43 20.07 +56 28 55.2    ~C51b 21.5 VVNEOCP033
     P10UYRX KC2019 12 05$':Z_Ky(Ad3:v(9\tu_24PmEqGIIC4NKOb0c\^MoRIxk+r@E^TuQL01
     P10UYRX KC2019 12 05TFS#ovkwG@9WuVtWnGMFJ%k0Q2U6@*gtPtQyqCwcjP^FJnLC:v`,L01
     P10UYRX pC2019 12 05Sr;i8E1gO+OVau%p%=q)3eUV,X@lf8./*-@q]j2\Ql10b6NYtaE)L01
     P10UYRX KC2019 12 05r%5PE(p7jAwm4]=hl(y/sMBmhAv`fkEHa68g2ih%XHX?*%)4u00BH21
     P10UYRX KC2019 12 05yRr9R^*R,lhx3B!Y$u2C7Ec%tN6Mh5f@MKL4=;fPo.,Ob0$u-^fSH21
     P10UYRX KC2019 12 05HlMv(D#J3CD`nqN1f;5If2Ca?'MLOsT%Ux(%eL$%tuT`;oPr$o8jH21

Station data:
(033) Karl Schwarzschild Observatory, Tautenburg  (N50.980140 E11.711240)
   Germany. 1.3-m Schmidt.
(568) Mauna Kea  (N19.826116 W155.472200)  US/Hawaii.
(F51) Pan-STARRS 1, Haleakala  (N20.707235 W156.255910)  US/Hawaii.
   Observers N. Primak, A. Schultz, S. Watters, J. Thiel, T. Goggia. Measurer
   PS1 Science Consortium. 1.8-m Ritchey-Chrétien + CCD.
(F52) Pan-STARRS 2, Haleakala  (N20.707384 W156.255910)  US/Hawaii. 1.8-m
   Ritchey-Chrétien + CCD.
(H21) Astronomical Research Observatory, Westfield  (N39.483057 W87.968270)
   US/Illinois. 0.76-m f/3.0 astrograph + CCD.
(L01) Višnjan Observatory, Tičan  (N45.290900 E13.749300)  Croatia.
   Observers K. Korlević, E. Pettarin. Measurer E. Pettarin. 1.0-m f/2.9
   reflector + CCD.

Orbital elements:  P10UYRX
   Perihelion 2019 Dec 24.090011 +/- 0.223 TT =  2:09:37 (JD 2458841.590011)
Epoch 2019 Dec  5.0 TT = JDT 2458822.5   Earth MOID: 0.2633   AutoNEOCP
M 351.85574698 +/- 0.042            (J2000 ecliptic)
n   0.42662378 +/- 0.00398          Peri.  175.51106 +/- 0.19
a   1.74758913 +/- 0.0109           Node   277.55499 +/- 0.009
e   0.2869795 +/- 0.0036            Incl.   28.62333 +/- 0.16
P   2.31/843.82d           H 21.6   G  0.15   U  9.0  
q 1.24606680 +/- 0.00144    Q 2.24911146 +/- 0.0201
From 25 observations 2019 Nov. 29-Dec. 5; mean residual 0".23
Residuals in arcseconds: 
191129 F51  .03+  .12+    191204 F52  .18+  .03+    191205 033  .32-  .21-    
191129 F51  .14+  .12+    191204 F52  .08+  .21+    191205 L01  .33-  .42-    
191129 F51  .25+  .09-    191204 F52  .06+  .14+    191205 L01  .25-  .60-    
191129 F51  .07-  .03-    191204 568  .12+  .16+    191205 L01  .45+  .42+    
191201 033  .22-  .28-    191204 568  .11+  .16+    191205 H21  .40+  .46+    
191201 033  .21-  .31-    191204 568  .11+  .13+    191205 H21  .05+  .06+    
191201 033  .14-  .12+    191205 033  .22-  .29-    191205 H21  .09-  .11+    
191201 033  .00   .17+    191205 033  .12-  .25-    
191204 F52  .09+  .19+    191205 033  .19-  .20-    

Ephemerides (geocentric):
Date (UTC) HH   RA              Dec         delta   r     elong  mag " sig PA
---- -- -- --  -------------   -----------  ------ ------ -----  --- ---- ---
2019 12 05 18  07 41 46.661   +55 55 32.36  .35331 1.2552 133.5 21.3 .252  97
2019 12 05 19  07 41 41.074   +55 53 31.97  .35304 1.2552 133.6 21.3 .265  98
2019 12 05 20  07 41 35.475   +55 51 31.32  .35277 1.2551 133.6 21.3 .278  98
2019 12 05 21  07 41 29.866   +55 49 30.42  .35249 1.2551 133.7 21.3 .292  99
2019 12 05 22  07 41 24.246   +55 47 29.25  .35222 1.2550 133.8 21.3 .305  99
2019 12 05 23  07 41 18.615   +55 45 27.83  .35195 1.2550 133.8 21.3 .319 100
2019 12 06 00  07 41 12.973   +55 43 26.15  .35168 1.2549 133.9 21.3 .333 100
2019 12 06 01  07 41 07.321   +55 41 24.21  .35140 1.2549 133.9 21.3 .347 101
2019 12 06 02  07 41 01.657   +55 39 22.01  .35113 1.2549 134.0 21.3 .361 101
2019 12 06 03  07 40 55.983   +55 37 19.55  .35086 1.2548 134.0 21.3 .375 101
2019 12 06 04  07 40 50.298   +55 35 16.83  .35059 1.2548 134.1 21.3 .390 102
2019 12 06 05  07 40 44.603   +55 33 13.84  .35032 1.2547 134.1 21.3 .405 102
2019 12 06 06  07 40 38.896   +55 31 10.60  .35005 1.2547 134.2 21.3 .420 102
2019 12 06 07  07 40 33.179   +55 29 07.09  .34978 1.2547 134.2 21.3 .435 103
2019 12 06 08  07 40 27.452   +55 27 03.32  .34951 1.2546 134.3 21.3 .450 103
2019 12 06 09  07 40 21.713   +55 24 59.28  .34924 1.2546 134.4 21.3 .466 103
2019 12 06 10  07 40 15.965   +55 22 54.98  .34897 1.2545 134.4 21.3 .481 103
2019 12 06 11  07 40 10.205   +55 20 50.42  .34870 1.2545 134.5 21.3 .497 104
2019 12 06 12  07 40 04.435   +55 18 45.59  .34843 1.2545 134.5 21.3 .513 104
2019 12 06 13  07 39 58.655   +55 16 40.50  .34816 1.2544 134.6 21.3 .529 104
2019 12 06 14  07 39 52.865   +55 14 35.14  .34789 1.2544 134.6 21.3 .545 104
2019 12 06 15  07 39 47.063   +55 12 29.51  .34762 1.2543 134.7 21.3 .562 105
2019 12 06 16  07 39 41.252   +55 10 23.62  .34735 1.2543 134.7 21.3 .579 105
2019 12 06 17  07 39 35.430   +55 08 17.46  .34709 1.2543 134.8 21.3 .595 105
2019 12 06 18  07 39 29.598   +55 06 11.03  .34682 1.2542 134.9 21.2 .612 105
2019 12 06 19  07 39 23.755   +55 04 04.33  .34655 1.2542 134.9 21.2 .630 105
2019 12 06 20  07 39 17.903   +55 01 57.36  .34628 1.2542 135.0 21.2 .647 105
2019 12 06 21  07 39 12.040   +54 59 50.12  .34602 1.2541 135.0 21.2 .664 106
2019 12 06 22  07 39 06.167   +54 57 42.62  .34575 1.2541 135.1 21.2 .682 106
2019 12 06 23  07 39 00.283   +54 55 34.84  .34548 1.2540 135.1 21.2 .700 106
2019 12 07 00  07 38 54.390   +54 53 26.79  .34522 1.2540 135.2 21.2 .718 106
2019 12 07 01  07 38 48.486   +54 51 18.47  .34495 1.2540 135.3 21.2 .736 106
2019 12 07 02  07 38 42.573   +54 49 09.88  .34469 1.2539 135.3 21.2 .754 106
2019 12 07 03  07 38 36.649   +54 47 01.01  .34442 1.2539 135.4 21.2 .773 107
2019 12 07 04  07 38 30.716   +54 44 51.88  .34415 1.2538 135.4 21.2 .792 107
2019 12 07 05  07 38 24.772   +54 42 42.46  .34389 1.2538 135.5 21.2 .811 107
2019 12 07 06  07 38 18.818   +54 40 32.78  .34363 1.2538 135.5 21.2 .830 107
2019 12 07 07  07 38 12.855   +54 38 22.82  .34336 1.2537 135.6 21.2 .849 107
2019 12 07 08  07 38 06.882   +54 36 12.58  .34310 1.2537 135.7 21.2 .868 107
2019 12 07 09  07 38 00.898   +54 34 02.07  .34283 1.2537 135.7 21.2 .888 107
2019 12 07 10  07 37 54.905   +54 31 51.29  .34257 1.2536 135.8 21.2 .908 108
2019 12 07 11  07 37 48.903   +54 29 40.22  .34231 1.2536 135.8 21.2 .927 108
2019 12 07 12  07 37 42.890   +54 27 28.88  .34204 1.2535 135.9 21.2 .948 108
2019 12 07 13  07 37 36.868   +54 25 17.26  .34178 1.2535 135.9 21.2 .968 108
2019 12 07 14  07 37 30.836   +54 23 05.37  .34152 1.2535 136.0 21.2 .988 108
2019 12 07 15  07 37 24.794   +54 20 53.19  .34126 1.2534 136.1 21.2 1.01 108
2019 12 07 16  07 37 18.743   +54 18 40.74  .34099 1.2534 136.1 21.2 1.03 108
2019 12 07 17  07 37 12.682   +54 16 28.01  .34073 1.2534 136.2 21.2 1.05 108